Theta_e
346 348 349 349 351 350 351 351 350 351 352 352 349 344 344 344 339 336 333 329 329 329 328 327 329 331 331 331 329 324 322 321 320 320 319 317 316 316 315 315 316 316 317 318 320 322 321 320 320 320 321 322 321 321 319 320 321 322 323 324 324 323 324
346 348 349 350 350 350 351 351 351 352 351 352 350 345 345 343 337 332 329 327 328 326 326 327 328 330 330 329 327 324 321 320 320 320 318 316 315 315 315 317 317 317 318 320 321 322 321 320 321 322 322 321 321 321 320 321 322 323 324 324 324 324 325
344 347 349 349 350 351 351 352 352 352 351 352 350 346 345 342 334 328 326 325 326 327 328 328 329 329 329 328 326 324 322 320 321 319 317 316 315 315 315 316 317 318 319 320 320 320 320 321 322 322 322 322 323 323 323 323 323 323 324 325 325 325 326
343 345 348 349 350 350 351 353 352 352 352 352 350 346 344 340 333 326 324 325 326 328 328 328 329 329 329 328 326 324 324 321 320 320 317 316 315 315 316 317 317 317 318 319 319 318 319 320 322 322 324 324 325 326 325 323 323 322 323 324 324 324 325
343 345 347 348 351 351 352 353 352 352 351 351 351 346 343 342 335 326 324 325 326 327 328 329 330 330 330 329 326 325 324 322 320 320 317 315 316 315 316 317 317 317 318 318 319 319 321 323 324 324 324 325 325 325 324 324 323 322 321 322 322 323 324
342 344 345 347 349 350 351 352 352 351 351 350 350 347 344 343 337 331 326 325 326 328 330 331 331 331 331 331 328 327 328 327 322 320 318 315 315 316 316 317 317 317 318 320 321 324 325 326 327 327 326 325 325 325 326 325 323 323 323 323 324 324 325
342 343 344 346 347 348 350 351 351 352 350 350 350 349 347 345 340 335 330 328 328 329 332 334 333 333 333 333 331 330 333 332 324 320 319 316 315 316 316 317 317 317 320 322 324 326 327 328 328 328 328 327 327 327 327 325 325 325 326 326 326 327 327
342 343 343 345 346 347 349 350 350 351 351 351 352 351 348 347 345 340 335 332 329 330 333 334 335 335 334 335 335 333 336 337 328 320 319 317 316 316 316 317 317 318 321 324 326 327 327 328 328 328 328 327 327 328 327 326 326 326 327 326 327 327 327
342 343 343 344 345 346 348 349 349 350 351 351 351 351 349 348 348 345 340 337 333 332 333 334 337 338 336 338 339 337 341 341 329 320 322 322 320 318 316 317 318 320 322 325 327 327 326 327 328 328 327 327 327 328 327 326 326 327 327 328 328 327 327
343 342 343 343 344 345 347 347 349 349 350 352 351 352 351 349 349 348 347 343 339 336 333 334 338 341 341 342 342 342 346 342 330 326 329 327 324 319 317 317 319 321 323 326 327 326 324 325 327 327 328 327 327 327 327 327 327 328 328 328 328 328 326
342 342 343 343 342 344 345 346 349 348 350 351 350 351 350 349 350 350 350 348 344 339 336 335 340 344 346 345 344 347 347 340 332 331 330 324 321 319 317 318 320 322 324 326 326 324 324 326 326 327 327 326 326 326 327 328 328 329 329 328 328 327 325
342 342 342 342 342 343 344 345 347 347 348 349 350 351 350 350 350 350 350 350 349 346 341 340 343 346 348 348 349 349 343 338 336 332 324 321 322 321 319 320 322 323 324 325 324 323 324 326 326 326 326 326 325 325 326 327 327 328 329 329 327 325 324
342 343 342 344 343 343 344 344 345 345 347 347 348 349 349 350 350 350 351 351 351 350 347 346 347 348 349 350 349 345 339 337 335 328 321 324 326 321 320 321 323 324 324 323 323 323 324 326 326 326 326 325 323 323 324 325 326 327 327 326 324 323 324
341 343 342 344 344 343 344 344 344 345 346 346 347 348 349 349 350 349 351 351 351 351 350 350 350 350 351 350 347 342 337 336 333 327 323 326 325 321 321 322 324 325 325 324 321 321 322 323 325 325 324 322 321 323 324 325 325 326 325 323 322 322 323
340 341 343 343 344 344 344 343 344 345 344 346 346 346 348 349 350 351 351 351 351 351 351 351 351 351 350 347 343 339 336 337 333 327 325 326 324 321 321 323 325 325 325 323 320 320 322 323 325 325 323 321 322 325 326 325 324 323 323 323 322 322 322
339 341 342 342 342 343 343 342 343 343 343 344 344 345 347 348 350 351 350 351 351 352 352 351 351 350 348 345 342 339 339 339 332 326 327 328 325 321 322 324 325 325 325 322 320 320 322 324 326 325 322 322 324 327 328 327 325 323 323 323 322 322 322
339 339 341 341 342 341 340 341 341 341 342 342 343 345 346 347 348 349 350 351 351 351 352 352 351 349 347 346 344 341 342 338 330 328 333 332 327 325 324 325 325 325 324 322 320 320 322 325 326 324 322 323 325 327 328 327 327 326 325 324 324 323 323
339 339 339 340 339 338 340 340 341 341 341 341 343 344 344 346 347 348 349 350 350 350 352 351 350 349 348 346 344 342 340 334 329 332 335 333 330 330 327 325 326 325 323 321 320 320 322 324 325 323 323 325 325 325 326 326 327 328 327 326 325 325 325
338 338 338 338 338 338 338 338 340 341 341 342 343 344 344 345 347 348 348 349 350 351 351 351 350 349 347 345 343 340 337 333 332 334 335 332 333 333 329 328 328 325 323 322 320 320 322 323 324 323 324 325 325 325 324 325 326 328 329 328 327 325 325
337 339 338 337 338 338 338 340 341 342 341 340 341 342 344 346 347 348 349 350 351 351 350 350 349 348 346 344 341 339 337 336 336 336 334 332 333 333 331 331 331 327 324 323 321 321 322 323 324 324 323 324 323 324 325 325 326 329 330 330 329 328 327
338 339 339 339 339 339 338 338 338 338 336 336 335 336 341 343 345 348 350 351 351 351 350 350 349 347 345 344 343 342 340 339 338 336 334 332 332 334 333 334 334 329 324 323 322 322 322 322 323 324 323 324 323 324 325 326 327 330 331 331 330 329 328
337 338 338 338 337 335 335 334 334 335 335 334 334 334 336 339 342 347 349 351 351 351 350 350 349 348 347 347 347 344 342 340 339 337 334 331 331 333 334 335 334 329 326 323 321 321 322 322 323 323 324 324 325 325 326 327 329 330 331 330 330 329 328
336 336 335 335 334 333 334 335 335 334 334 336 337 335 336 338 341 345 347 350 351 351 351 350 349 349 348 347 346 344 343 341 339 338 336 332 331 333 333 333 332 330 329 327 323 322 322 322 323 323 324 325 325 327 328 329 330 329 329 329 329 328 327
333 334 333 333 333 334 334 334 335 335 335 336 335 334 335 337 340 344 345 347 350 351 350 350 349 349 348 346 345 345 344 342 338 337 335 332 331 331 329 330 331 332 332 331 326 323 322 323 323 324 324 325 327 328 329 331 331 329 328 328 329 328 327
332 334 333 333 334 334 333 333 334 334 335 334 331 331 332 333 337 341 344 345 348 349 350 349 349 349 349 347 345 345 344 340 337 335 333 331 332 331 327 328 331 333 333 332 328 325 324 325 325 325 325 326 328 330 331 331 330 329 328 328 328 327 326
333 334 334 333 334 333 333 333 333 332 332 331 330 331 331 331 333 336 339 342 345 347 348 347 347 348 348 346 345 343 342 340 337 334 331 329 331 330 327 329 333 335 334 332 330 328 328 328 327 327 327 328 331 332 331 329 328 329 328 328 327 326 326
333 334 333 332 332 332 332 333 331 330 330 330 330 331 330 331 332 332 334 338 341 341 341 342 345 347 346 345 344 342 341 341 338 334 331 329 328 326 326 329 334 337 336 333 331 331 331 331 330 330 330 331 332 332 329 326 326 327 327 326 325 326 326
330 331 331 330 330 330 331 330 330 330 330 330 331 331 331 332 331 331 335 336 335 334 336 340 344 345 345 344 343 342 342 342 339 333 329 326 325 325 327 328 332 337 338 337 334 333 333 333 332 332 333 332 330 328 327 326 326 326 325 325 326 325 324
329 329 329 329 329 329 329 328 328 329 331 332 333 333 333 334 334 333 334 333 332 335 338 342 344 344 344 343 343 342 341 340 337 333 327 324 327 330 330 332 333 337 339 337 336 334 334 334 333 334 334 332 329 327 327 326 326 325 325 325 324 323 321
331 330 330 330 329 329 331 330 331 331 332 334 335 335 336 338 338 337 335 334 336 340 341 343 343 342 343 343 342 342 340 337 335 333 328 328 332 333 332 333 335 337 338 336 335 335 334 333 334 334 333 330 328 327 327 326 325 325 325 323 322 321 320
331 331 331 331 331 332 332 334 335 336 336 336 337 338 340 342 343 342 341 340 341 342 343 343 342 341 342 342 341 340 339 336 336 334 331 330 331 330 329 332 335 336 335 335 335 335 333 332 331 331 330 329 327 326 326 325 325 325 323 321 320 320 320
331 331 330 330 331 331 332 333 333 333 334 336 338 339 341 342 344 344 343 343 343 343 342 341 341 341 341 340 339 338 336 335 334 333 331 330 331 330 330 332 334 334 335 335 335 334 332 329 329 329 328 327 326 326 326 326 324 322 321 320 321 321 321
330 331 330 330 331 330 330 330 330 330 331 335 338 340 341 343 344 344 344 344 344 343 341 340 339 339 338 337 336 335 334 333 333 333 332 332 331 331 331 332 333 334 335 335 334 332 329 328 327 327 327 326 325 325 326 324 322 321 320 321 321 321 321
329 329 328 329 329 330 330 331 330 331 334 335 337 338 340 343 344 344 344 344 344 342 341 338 337 337 337 336 336 335 333 333 333 332 332 331 330 329 331 333 333 332 333 332 330 329 328 328 327 326 326 326 326 325 324 322 320 320 320 320 320 321 321
327 327 327 327 327 328 329 330 330 333 334 335 336 338 340 342 344 344 344 343 342 341 340 338 337 337 337 335 335 335 333 332 330 329 328 330 330 329 329 330 330 330 330 330 329 329 328 327 326 326 325 326 325 323 322 320 319 319 319 319 319 320 320
327 328 328 329 328 328 329 330 331 333 335 336 337 338 340 341 341 340 340 339 338 338 337 337 336 336 335 332 330 330 330 328 326 327 329 331 330 326 326 328 328 328 330 329 329 328 327 326 326 326 325 324 323 322 320 319 318 318 318 319 318 319 320
330 331 330 330 330 330 329 330 330 333 334 336 337 337 338 338 335 334 333 333 334 334 333 332 332 330 330 329 326 326 327 326 326 328 328 326 324 322 323 325 326 326 328 329 328 327 326 326 326 325 324 323 322 322 320 319 319 318 319 319 319 319 319
332 331 331 332 331 331 330 330 331 333 335 336 336 336 336 334 332 330 329 328 327 327 326 326 325 324 324 325 324 324 324 324 325 325 324 323 322 321 321 323 325 327 328 328 327 327 326 326 325 324 323 323 322 321 320 319 319 319 319 319 319 319 319
Wind_Speed
37 38 42 44 45 46 47 49 49 48 47 45 43 40 39 40 39 39 39 39 38 38 37 36 34 32 29 27 25 22 19 17 17 17 18 19 19 18 17 17 16 15 14 12 12 11 11 10 9 8 7 7 7 8 7 7 7 8 7 7 6 6 6
37 39 41 44 46 47 48 49 49 49 48 47 45 42 42 42 42 42 43 42 41 41 39 38 36 34 32 29 27 25 21 19 19 20 20 20 19 18 17 16 15 14 13 12 12 12 12 12 10 9 8 8 7 6 6 6 7 8 8 8 8 8 8
38 39 42 45 47 48 47 48 48 49 48 48 47 44 44 44 44 45 46 45 44 42 41 39 38 36 34 32 30 27 24 22 22 22 22 21 18 17 16 16 15 14 13 13 13 14 14 13 12 10 9 8 6 5 6 7 8 8 9 9 9 9 10
39 42 44 45 47 48 47 48 49 49 49 49 48 46 45 46 46 47 48 47 46 45 44 42 40 38 36 34 32 30 27 25 24 23 22 20 17 16 17 17 15 14 14 13 13 13 13 12 11 9 8 6 6 6 8 9 9 9 10 10 11 11 11
39 41 42 43 45 45 46 47 49 50 50 49 49 48 47 47 47 48 49 49 48 47 45 44 42 40 38 36 34 32 30 28 26 23 21 19 18 18 18 17 16 14 13 12 12 12 11 10 8 7 6 5 6 7 9 9 10 10 10 10 10 10 10
38 40 41 42 44 45 46 48 50 51 51 50 51 50 49 49 49 49 50 50 50 48 47 46 44 42 41 39 36 34 32 30 28 25 22 20 19 19 18 17 16 14 12 12 13 12 10 8 6 5 5 5 5 6 7 8 8 8 8 8 8 7 7
39 41 42 43 45 46 47 49 50 51 52 51 52 52 51 50 50 50 51 51 51 51 49 48 46 44 43 41 39 37 35 33 30 26 23 21 20 19 17 16 15 14 13 13 13 11 9 7 6 5 5 4 4 4 6 7 6 6 7 7 6 6 7
42 43 45 45 46 47 47 48 49 50 51 51 51 52 52 52 52 52 53 52 52 52 51 51 49 47 46 44 42 40 38 35 31 27 24 21 20 18 17 16 15 14 14 14 13 11 9 7 6 5 5 4 4 4 5 5 6 6 7 7 7 8 10
43 44 47 47 46 46 46 48 48 48 50 51 51 52 53 54 54 54 54 53 54 54 54 53 51 49 48 46 45 43 40 37 32 28 23 19 17 16 15 16 16 15 14 14 13 11 9 8 7 6 5 5 5 5 4 5 6 7 8 9 10 11 11
42 44 45 45 46 46 44 44 45 46 48 50 51 52 53 54 55 55 54 54 55 55 55 54 53 52 50 49 47 45 42 38 34 27 20 15 14 14 15 17 17 16 15 14 13 11 10 9 8 7 7 6 6 6 5 6 7 8 10 11 12 13 13
41 43 43 44 45 44 42 41 43 45 47 49 51 52 53 54 55 55 55 55 55 56 56 55 54 54 52 51 49 47 45 40 33 25 18 15 15 16 18 20 19 17 16 15 14 12 11 10 8 8 8 7 6 7 8 8 9 11 12 12 13 14 13
40 41 42 44 46 45 42 42 44 45 47 49 51 52 53 54 55 55 56 56 56 56 56 56 55 55 54 53 51 48 45 39 32 27 23 20 17 17 20 21 19 18 17 15 14 13 12 11 10 9 8 8 8 9 10 10 12 12 12 13 14 13 11
40 41 43 45 46 45 43 43 45 45 47 49 49 51 53 54 55 55 56 56 56 56 56 56 56 55 54 54 50 46 43 39 34 32 30 23 18 18 21 21 20 19 18 16 15 14 13 11 10 10 9 9 9 10 11 12 13 13 13 13 13 12 11
37 38 41 43 45 44 43 44 45 45 46 47 47 50 52 53 54 55 55 56 56 56 57 56 55 56 55 52 44 39 39 39 36 34 29 22 18 20 22 22 21 21 19 16 15 14 13 12 11 11 11 10 10 10 10 12 13 13 12 11 11 11 12
33 36 39 41 42 43 43 44 44 44 45 45 46 49 51 52 53 54 54 55 55 56 56 55 54 53 47 40 34 31 33 37 38 31 23 20 20 21 24 23 22 21 19 17 16 14 13 12 12 12 12 12 12 11 10 10 10 10 9 9 10 11 12
34 37 40 40 40 41 41 40 40 41 42 43 45 47 49 51 53 53 54 55 55 55 55 53 49 44 40 39 37 36 36 40 39 27 17 22 24 23 23 22 22 22 20 17 16 15 14 13 13 13 13 13 14 13 11 10 9 9 8 8 9 11 12
35 37 39 39 38 38 38 38 39 40 40 41 42 44 46 49 51 52 54 53 53 54 53 49 44 41 43 45 44 43 42 42 36 22 16 23 28 25 22 21 22 22 20 18 17 15 15 14 14 15 14 14 14 14 13 12 11 10 9 9 10 12 14
35 36 37 37 36 36 36 37 38 39 39 40 41 43 45 47 49 51 52 52 53 53 49 43 42 43 46 46 44 42 38 33 27 19 17 24 30 27 22 21 22 22 21 20 18 16 16 16 16 15 14 14 14 14 13 13 13 12 12 12 13 14 16
35 36 36 36 36 35 34 34 35 36 37 37 38 40 42 44 47 49 50 51 50 47 43 41 43 45 44 43 41 38 34 28 25 21 21 26 30 28 23 22 23 23 22 21 19 18 18 17 17 16 14 13 13 13 13 14 13 13 14 15 16 17 18
34 35 36 35 33 31 29 30 30 29 28 27 28 31 36 40 44 45 46 46 44 41 39 40 41 40 37 36 36 36 35 33 29 25 25 27 29 29 27 26 25 24 22 22 21 21 21 19 18 17 15 13 13 13 14 14 14 15 16 17 19 20 21
29 29 28 25 22 20 17 16 16 14 12 12 14 19 24 30 36 40 42 42 41 40 39 39 40 40 39 39 40 41 40 35 28 27 27 25 27 31 31 29 27 25 23 23 23 23 22 20 19 17 16 15 14 16 16 16 15 17 18 19 20 21 23
22 21 18 16 14 12 10 8 9 8 6 5 6 10 13 17 24 33 39 40 41 41 40 41 43 44 45 47 47 45 40 33 28 29 27 23 27 33 32 29 28 26 25 25 25 24 23 21 19 17 16 16 18 20 19 17 17 18 19 21 21 22 23
19 17 15 14 12 10 8 7 8 9 7 6 7 8 9 11 16 24 32 36 40 41 41 43 45 46 48 49 48 42 37 34 33 32 26 24 29 32 30 27 28 28 28 28 27 25 24 22 20 18 17 18 20 21 21 20 19 19 20 20 20 20 21
20 18 16 14 11 9 7 5 4 5 6 6 8 8 9 12 15 20 26 32 37 40 41 43 45 47 49 50 47 38 34 37 38 30 24 26 30 30 26 25 27 29 30 30 28 25 24 22 20 19 19 21 22 24 25 23 21 21 21 20 19 18 19
22 19 16 12 9 7 6 3 3 4 6 8 10 10 9 10 13 17 21 26 31 36 39 42 45 48 51 52 48 37 33 39 39 26 22 28 31 28 25 25 27 29 30 30 28 26 24 23 22 22 23 25 27 27 25 21 20 21 21 20 19 19 19
18 16 13 10 7 6 4 4 4 6 9 11 12 10 9 8 9 12 16 20 26 31 35 38 42 47 51 51 44 32 32 42 39 27 24 27 27 25 25 26 29 32 31 30 28 28 27 26 25 25 26 29 30 27 21 17 18 20 20 19 19 19 19
12 12 11 9 7 5 5 5 7 7 10 13 14 14 13 11 11 11 13 17 21 24 27 32 38 44 47 47 41 32 34 43 41 30 23 21 20 23 25 28 32 35 34 31 30 30 30 30 29 29 30 30 28 24 20 18 18 19 20 19 18 18 19
9 8 7 7 5 4 4 6 7 8 11 13 15 17 18 16 14 13 14 17 18 19 23 30 37 42 44 43 39 34 36 43 40 28 20 20 22 26 29 30 33 35 36 36 34 33 34 34 32 31 30 27 23 20 19 19 19 19 19 18 17 18 19
6 5 3 4 2 1 3 4 6 8 11 14 16 18 19 18 15 14 15 17 17 19 25 30 35 39 41 40 37 35 37 41 34 22 19 25 29 31 32 32 33 35 38 39 37 36 34 32 30 29 28 25 23 21 21 20 19 18 17 17 18 19 18
8 8 6 5 3 2 3 4 6 8 11 14 17 18 18 18 17 16 16 18 19 23 28 30 32 35 38 36 34 35 38 40 32 22 23 30 32 31 30 30 31 34 37 36 34 32 29 27 27 27 25 23 22 21 19 18 17 17 17 18 19 19 18
9 8 7 6 5 4 4 5 7 9 11 13 15 16 17 18 19 20 20 21 22 25 27 28 29 33 36 33 33 35 40 42 36 27 26 31 31 29 29 29 30 32 33 31 28 27 25 24 24 23 22 21 20 17 15 15 16 16 17 19 19 18 17
10 10 8 7 7 7 7 7 8 10 10 11 12 13 16 18 20 22 23 23 23 24 24 25 27 32 34 32 31 33 37 38 35 29 28 30 28 26 25 26 28 31 30 26 24 23 21 20 20 19 19 18 15 13 14 14 15 16 18 18 17 17 17
12 12 11 10 10 9 9 9 10 11 11 11 12 13 16 19 21 23 23 21 22 23 23 24 28 32 33 30 27 25 24 24 25 24 25 24 21 19 21 23 25 27 25 23 22 20 18 17 17 17 16 13 12 13 13 14 15 16 17 16 16 16 16
13 14 14 13 13 13 12 11 9 9 11 13 14 16 18 20 21 20 19 19 19 20 21 24 28 31 30 28 26 22 19 18 19 19 20 18 13 11 15 18 20 22 22 21 19 17 16 16 16 14 12 11 12 13 13 13 14 15 15 15 16 16 16
18 18 17 15 14 14 14 12 10 10 13 15 15 16 18 18 17 17 17 17 16 16 18 21 23 23 22 21 20 20 19 18 18 15 13 12 11 8 10 15 18 21 21 19 16 15 15 14 12 11 11 12 13 13 12 13 14 15 16 17 17 16 16
16 15 13 13 12 11 11 11 11 12 14 15 15 14 14 13 11 11 11 12 12 13 14 15 14 14 13 12 13 14 14 14 15 13 11 9 9 9 12 16 19 20 20 17 16 15 15 13 12 12 12 12 12 12 12 14 15 16 17 17 16 17 17
8 7 8 9 9 9 9 10 12 13 15 15 13 13 13 15 17 18 18 18 19 20 21 23 23 20 18 17 15 11 10 13 14 11 8 8 11 14 16 19 21 20 19 18 17 16 15 14 13 13 13 12 12 12 13 16 17 17 17 16 16 17 17
8 9 10 10 10 10 10 10 12 14 15 15 15 17 20 23 25 26 26 26 26 25 24 23 21 18 15 11 5 1 5 11 10 7 9 14 17 18 19 21 21 19 19 19 18 17 16 15 14 14 12 12 12 14 15 17 17 17 17 17 16 16 17
Wind_Direction
200 202 202 203 204 205 207 207 208 209 209 208 208 206 204 204 205 206 206 204 203 202 203 206 209 210 213 215 217 218 218 222 227 231 231 225 219 215 215 214 215 217 220 227 234 242 244 236 229 228 232 241 248 250 250 248 248 250 252 253 248 247 253
200 202 203 203 205 206 208 209 209 209 209 209 208 206 204 203 204 205 204 202 203 203 204 207 209 211 212 214 217 216 215 218 222 225 223 218 212 209 208 209 211 213 220 228 235 240 239 232 226 227 233 241 246 245 249 256 253 251 254 255 252 250 253
200 202 203 205 206 207 209 209 209 210 211 210 209 207 205 204 205 204 203 202 203 204 206 208 210 211 212 214 217 216 214 215 219 221 218 212 208 207 208 211 210 213 220 226 231 233 231 228 225 225 228 236 246 257 272 275 266 260 259 256 255 255 257
201 203 205 206 207 208 209 209 210 211 212 212 211 209 207 207 207 205 204 204 204 205 207 209 211 212 214 215 217 217 215 214 216 219 215 207 204 207 211 213 210 211 217 222 226 224 220 219 217 215 221 234 253 268 275 275 270 268 266 263 263 265 268
202 204 205 207 207 208 209 210 211 212 213 214 213 212 210 209 208 207 207 207 207 209 210 211 212 214 216 217 218 218 217 215 215 216 212 204 203 209 211 211 209 209 212 215 215 212 208 207 205 209 221 237 256 266 270 271 269 270 271 270 270 272 276
201 203 206 207 208 209 210 211 213 214 215 216 215 215 213 210 210 210 210 210 210 212 214 215 216 217 218 219 219 219 219 217 215 214 211 203 203 208 209 208 208 206 205 205 202 199 197 197 196 204 215 230 251 264 271 269 266 269 273 271 269 273 282
201 203 206 209 210 211 212 213 214 215 217 217 217 216 214 212 212 213 213 213 213 214 215 217 218 219 221 221 220 220 221 219 215 212 209 204 204 208 206 207 207 202 198 197 194 189 186 186 186 192 205 223 242 262 270 264 261 267 268 263 267 277 284
204 205 208 211 212 213 214 214 215 215 216 216 215 215 214 214 215 215 216 216 216 216 217 219 221 222 223 223 223 222 221 220 215 211 208 204 204 206 205 207 206 201 197 192 188 186 181 182 185 192 209 225 239 255 263 263 262 263 263 265 272 276 278
205 208 210 213 214 216 216 216 216 216 216 216 215 216 216 216 216 217 218 218 218 219 220 222 223 224 225 225 225 224 223 221 215 209 205 205 209 212 212 213 208 202 197 190 187 188 186 189 196 207 227 239 249 257 260 258 254 252 260 267 272 277 281
205 208 211 213 216 218 218 216 216 215 215 216 216 217 217 217 218 219 220 220 220 221 223 224 224 225 227 227 227 227 224 219 211 201 197 203 217 222 220 220 214 205 198 190 191 194 193 199 209 220 236 249 258 266 266 256 252 256 263 269 277 285 292
204 207 210 212 215 218 217 216 216 216 217 218 218 218 219 219 220 221 221 222 223 224 226 225 225 226 227 228 229 227 222 214 202 189 188 199 210 215 218 221 217 207 201 194 193 199 202 208 217 225 237 250 260 268 266 257 256 263 267 275 285 290 291
203 206 208 211 215 217 216 217 219 221 222 221 220 221 221 221 222 223 224 224 226 227 227 226 226 227 228 229 228 223 215 204 190 185 194 201 206 213 218 221 218 209 204 199 196 201 207 212 222 232 241 252 261 267 266 262 262 265 270 280 286 286 281
202 205 208 211 215 216 217 219 222 224 225 224 224 225 225 224 224 224 225 227 228 229 228 228 227 227 228 229 225 215 205 195 190 199 206 204 210 220 218 219 219 212 207 203 200 204 209 216 227 238 245 249 256 264 267 264 263 264 271 279 281 277 272
201 203 207 211 215 217 218 220 223 225 226 227 228 228 228 227 227 227 228 229 230 229 229 228 227 227 228 225 217 205 196 194 202 212 210 204 213 220 215 217 220 216 212 207 205 208 211 217 230 241 242 243 249 259 262 261 261 263 269 277 277 272 271
198 202 206 209 213 216 219 221 225 227 229 231 230 229 229 229 229 229 228 230 230 229 229 228 227 226 223 214 203 192 190 200 211 213 209 215 221 214 211 217 220 218 216 212 211 213 213 220 233 240 240 242 249 255 256 259 263 264 269 276 278 275 275
200 203 206 209 213 217 221 225 228 229 230 231 231 231 230 230 230 230 230 231 231 230 230 228 224 219 214 209 203 199 203 212 212 207 216 229 223 212 210 215 218 220 219 216 217 218 218 224 235 239 241 245 248 249 252 259 264 265 269 279 283 283 281
204 206 208 212 216 219 222 225 227 229 230 232 234 234 233 233 233 232 232 231 231 232 231 226 219 215 215 215 210 207 211 211 205 203 226 228 218 214 213 213 218 221 220 220 222 221 222 229 235 239 242 245 245 246 252 261 265 267 272 277 280 283 284
204 207 208 210 213 216 221 223 225 228 230 233 235 234 234 235 234 233 233 233 234 233 228 220 216 217 218 218 214 206 201 199 199 209 226 222 216 216 213 212 218 221 221 224 225 224 227 230 233 238 241 244 247 249 256 263 267 270 273 275 277 279 281
202 204 203 203 208 214 219 223 227 230 233 237 239 239 240 238 236 236 237 237 235 230 223 218 219 219 218 216 209 197 191 201 215 218 217 215 213 212 213 215 219 221 223 226 228 229 231 232 234 237 239 244 251 254 259 264 268 271 273 275 277 276 276
199 201 200 203 210 217 222 227 232 236 241 248 253 254 251 245 241 241 239 236 232 226 222 220 218 214 208 202 198 196 204 221 230 223 216 215 212 212 215 218 221 224 226 229 232 233 234 233 234 235 235 240 249 253 257 262 267 272 275 275 275 274 272
197 198 199 203 209 214 219 225 229 234 244 255 265 269 263 256 251 246 240 235 230 227 224 220 217 213 207 204 207 211 218 227 230 222 216 215 216 217 217 219 223 227 227 230 234 235 235 235 235 236 236 241 250 254 258 264 270 275 276 274 274 272 269
187 185 185 187 189 193 196 202 209 216 226 240 260 271 271 269 260 248 241 236 232 229 225 222 221 218 217 218 218 219 223 226 222 215 212 216 221 220 217 218 223 226 228 232 235 236 238 237 236 238 240 245 253 258 261 267 274 277 277 276 275 271 267
167 169 172 173 174 178 183 193 204 212 219 229 243 254 258 264 259 247 241 238 234 231 228 225 224 223 223 223 218 220 228 225 213 209 213 219 221 219 215 216 221 226 230 234 237 239 240 239 238 240 244 250 257 262 266 271 274 276 277 277 276 273 273
159 164 167 169 173 179 182 183 190 204 222 241 260 269 264 262 258 249 242 238 236 233 230 228 226 225 226 224 218 224 234 223 210 209 213 215 215 214 214 218 223 228 232 235 240 242 243 243 243 243 248 254 260 266 270 273 273 274 277 277 276 277 281
157 159 162 166 175 184 186 189 206 229 250 263 275 281 273 266 262 255 249 245 241 237 233 232 231 231 232 227 222 226 229 216 207 206 207 211 213 212 215 222 226 231 235 239 243 246 247 247 246 249 253 257 261 266 271 276 278 277 278 278 278 281 284
152 152 152 152 157 165 170 194 231 263 280 284 285 281 270 262 258 257 257 253 247 242 241 243 243 240 235 226 220 223 224 215 209 204 206 213 216 215 221 229 233 236 239 241 245 248 249 248 248 252 256 259 261 263 267 278 284 280 275 276 279 284 286
138 141 143 143 149 164 189 227 255 280 291 291 290 283 271 260 254 256 256 251 249 254 258 257 250 241 231 221 216 223 227 218 210 205 207 213 216 219 227 234 238 241 242 244 248 250 249 249 249 251 255 258 260 260 265 278 283 276 273 278 284 288 290
122 132 146 148 148 173 213 252 276 286 282 277 278 277 268 258 253 252 247 246 254 266 267 258 246 237 227 218 218 227 227 216 207 202 201 208 218 227 232 236 242 247 248 247 249 252 252 251 250 251 254 255 253 258 272 283 280 273 276 284 290 293 294
75 72 96 111 101 211 245 268 280 284 282 278 275 271 262 253 249 246 246 254 264 266 260 251 242 232 222 217 222 229 221 207 200 196 199 212 226 236 239 244 252 255 255 253 252 252 252 251 251 252 251 250 253 264 276 279 274 274 281 291 296 297 297
49 45 50 48 21 324 281 277 276 284 288 283 275 265 252 245 246 249 254 260 260 254 249 245 237 225 218 220 228 227 212 199 197 207 217 224 235 243 247 255 263 265 264 260 254 251 253 256 255 250 246 252 266 276 275 268 269 277 288 295 299 298 295
35 37 35 23 9 348 322 307 296 294 294 288 280 265 249 243 244 248 253 254 252 251 248 242 231 219 216 223 228 220 207 201 207 220 227 229 238 246 249 256 266 269 267 262 253 254 260 258 249 244 250 265 278 277 266 262 271 284 293 298 299 297 294
20 21 17 9 4 353 340 334 324 312 302 291 278 261 248 243 242 243 246 250 253 254 248 237 223 215 217 224 224 216 210 209 216 228 233 233 239 247 247 253 262 264 262 258 253 254 253 244 242 253 268 276 275 265 259 266 279 291 297 298 297 294 291
5 6 4 1 0 356 350 347 338 326 308 287 268 253 245 242 241 242 245 250 255 255 246 231 219 215 216 218 216 215 216 217 221 232 235 232 237 245 245 248 254 254 251 249 245 240 239 244 257 269 273 270 263 258 263 275 288 296 298 297 293 288 285
346 348 346 346 350 352 351 349 338 312 290 274 262 251 243 239 238 242 246 248 252 250 237 222 215 215 217 219 221 225 229 224 223 232 233 223 219 233 241 241 242 242 239 237 237 240 251 263 268 267 263 259 258 262 272 288 298 301 299 293 287 283 281
320 326 328 330 338 343 340 333 317 292 278 269 259 250 242 237 237 241 241 239 239 234 223 216 215 217 222 225 223 221 217 208 202 206 210 199 194 215 240 239 236 235 233 234 241 251 257 260 257 254 255 255 260 271 286 299 306 304 297 291 286 282 279
319 319 319 323 327 326 318 312 303 288 276 266 255 241 228 218 211 208 210 210 205 195 185 179 176 180 185 177 167 174 182 176 169 170 173 184 205 233 243 238 235 234 235 241 248 249 247 246 245 246 251 257 267 282 297 308 311 306 298 292 286 280 277
324 300 292 295 298 301 302 300 294 283 268 252 235 212 191 173 158 149 144 142 142 142 142 140 138 138 139 137 131 134 149 151 149 156 179 224 256 260 245 236 239 242 244 245 244 241 240 242 244 249 256 264 276 292 305 312 312 307 299 292 285 280 278
292 279 278 276 276 282 287 288 287 278 260 235 208 187 173 162 152 145 138 132 130 130 130 130 128 125 129 140 145 153 173 166 166 188 224 243 255 253 242 240 244 245 243 241 239 239 241 244 248 253 261 273 289 301 308 311 311 306 297 290 284 281 280